Tracking 34719 objects as of 12-Jul-2026
HD Live streaming from Space Station
objects crossing your sky now

SL-14 R/B

Track SL-14 R/B now!
10-day predictions


NORAD ID: 27061
Int'l Code: 2001-058G
Perigee: 1,420.4 km
Apogee: 1,489.9 km
Inclination: 82.5 °
Period: 114.8 minutes
Semi major axis: 7826 km
RCS: 6.0466 m2 (large)
Launch date: December 28, 2001
Source: Commonwealth of Independent States (former USSR) (CIS)
Launch site: PLESETSK MISSILE AND SPACE COMPLEX (PKMTR)

Note: This is a ROCKET BODY
Your satellite tracking list
Your tracking list is empty




NASA's NSSDC Master Catalog

Two Line Element Set (TLE):
1 27061U 01058G   26192.76387453  .00000007  00000-0 -19318-4 0  9997
2 27061  82.5447 278.8138 0044374  60.4373  62.6046 12.53957080123101
Source of the keplerian elements: AFSPC